This is the latest recevied weather packets stored in our database for station/object DK4MDA-13. If no packets are shown the sender has not sent any weather packets the latest 10 day(s).
| Time | Temp. | Humidity | Pressure | Rain* | Wind** | Luminosity | Snow |
|---|---|---|---|---|---|---|---|
| 1777573337 | 16.67° C | 45% | 1029.4 hPa | 0 mm | - | - | - |
| 1777573037 | 16.67° C | 45% | 1029.4 hPa | 0 mm | - | - | - |
| 1777572737 | 16.67° C | 45% | 1029.3 hPa | 0 mm | - | - | - |
| 1777572437 | 16.67° C | 46% | 1029.3 hPa | 0 mm | - | - | - |
| 1777572137 | 16.67° C | 44% | 1029.3 hPa | 0 mm | - | - | - |
| 1777571837 | 16.67° C | 43% | 1029.4 hPa | 0 mm | - | - | - |
| 1777571537 | 17.22° C | 43% | 1029.4 hPa | 0 mm | - | - | - |
| 1777571237 | 17.22° C | 43% | 1029.3 hPa | 0 mm | - | - | - |
| 1777570937 | 17.22° C | 42% | 1029.4 hPa | 0 mm | - | - | - |
| 1777570637 | 17.22° C | 44% | 1029.4 hPa | 0 mm | - | - | - |
| 1777570337 | 17.22° C | 44% | 1029.5 hPa | 0 mm | - | - | - |
| 1777570037 | 17.78° C | 42% | 1029.4 hPa | 0 mm | - | - | - |
| 1777569737 | 17.78° C | 41% | 1029.5 hPa | 0 mm | - | - | - |
| 1777569437 | 17.78° C | 41% | 1029.5 hPa | 0 mm | - | - | - |
| 1777569137 | 17.78° C | 39% | 1029.5 hPa | 0 mm | - | - | - |
| 1777568837 | 17.78° C | 39% | 1029.4 hPa | 0 mm | - | - | - |
| 1777568537 | 18.33° C | 40% | 1029.5 hPa | 0 mm | - | - | - |
| 1777568237 | 18.33° C | 41% | 1029.5 hPa | 0 mm | - | - | - |
| 1777567937 | 18.33° C | 38% | 1029.4 hPa | 0 mm | - | - | - |
| 1777567637 | 18.33° C | 39% | 1029.7 hPa | 0 mm | - | - | - |
| 1777567337 | 18.89° C | 40% | 1029.6 hPa | 0 mm | - | - | - |
| 1777567037 | 19.44° C | 40% | 1029.6 hPa | 0 mm | - | - | - |
| 1777566737 | 19.44° C | 41% | 1029.6 hPa | 0 mm | - | - | - |
| 1777566437 | 20° C | 38% | 1029.6 hPa | 0 mm | - | - | - |
| 1777566137 | 19.44° C | 39% | 1029.7 hPa | 0 mm | - | - | - |
* Rain latest hour (hover to see other rain measurements)
** Current wind speed in m/s (hover to see current wind gust speed)